Time,TemperatureF,DewpointF,PressureIn,WindDirection,WindDirectionDegrees,WindSpeedMPH,WindSpeedGustMPH,Humidity,HourlyPrecipIn,Conditions,Clouds,dailyrainin,SoftwareType,DateUTC
2013-08-15 00:10:00,77.8,76.0,29.86,West,264,3.0,-999.0,93,-99.99,,,0.14,weatherlink.com 1.10,2013-08-15 05:10:00,
2013-08-15 00:25:00,77.6,76.0,29.85,West,264,1.0,-999.0,93,-99.99,,,0.00,weatherlink.com 1.10,2013-08-15 05:25:00,
2013-08-15 00:40:00,77.3,75.0,29.85,West,264,1.0,-999.0,93,-99.99,,,0.00,weatherlink.com 1.10,2013-08-15 05:40:00,
2013-08-15 00:55:00,77.1,75.0,29.85,West,264,0.0,-999.0,93,-99.99,,,0.00,weatherlink.com 1.10,2013-08-15 05:55:00,
2013-08-15 01:10:00,77.2,75.0,29.85,West,264,0.0,-999.0,93,-99.99,,,0.00,weatherlink.com 1.10,2013-08-15 06:10:00,
2013-08-15 01:25:00,77.2,75.0,29.84,West,264,0.0,-999.0,94,-99.99,,,0.00,weatherlink.com 1.10,2013-08-15 06:25:00,
2013-08-15 01:40:00,77.2,75.0,29.84,West,264,1.0,-999.0,94,-99.99,,,0.00,weatherlink.com 1.10,2013-08-15 06:40:00,
2013-08-15 01:55:00,77.4,76.0,29.84,West,264,4.0,-999.0,94,-99.99,,,0.00,weatherlink.com 1.10,2013-08-15 06:55:00,
2013-08-15 02:11:00,77.8,75.0,29.84,West,264,0.0,-999.0,92,-99.99,,,0.00,weatherlink.com 1.10,2013-08-15 07:11:00,
2013-08-15 02:26:00,77.6,75.0,29.83,West,264,3.0,-999.0,92,-99.99,,,0.00,weatherlink.com 1.10,2013-08-15 07:26:00,
2013-08-15 02:41:00,77.5,75.0,29.83,West,264,0.0,-999.0,92,-99.99,,,0.00,weatherlink.com 1.10,2013-08-15 07:41:00,
2013-08-15 02:56:00,77.3,75.0,29.82,West,264,1.0,-999.0,92,-99.99,,,0.00,weatherlink.com 1.10,2013-08-15 07:56:00,
2013-08-15 03:11:00,77.1,75.0,29.83,West,264,0.0,-999.0,93,-99.99,,,0.00,weatherlink.com 1.10,2013-08-15 08:11:00,
2013-08-15 03:26:00,76.9,75.0,29.82,West,264,0.0,-999.0,93,-99.99,,,0.00,weatherlink.com 1.10,2013-08-15 08:26:00,
2013-08-15 03:41:00,76.8,75.0,29.82,West,264,0.0,-999.0,93,-99.99,,,0.00,weatherlink.com 1.10,2013-08-15 08:41:00,
2013-08-15 03:56:00,76.6,75.0,29.83,West,264,0.0,-999.0,93,-99.99,,,0.00,weatherlink.com 1.10,2013-08-15 08:56:00,
2013-08-15 04:11:00,76.5,75.0,29.83,West,264,0.0,-999.0,94,-99.99,,,0.00,weatherlink.com 1.10,2013-08-15 09:11:00,
2013-08-15 04:26:00,76.2,74.0,29.83,West,264,0.0,-999.0,94,-99.99,,,0.00,weatherlink.com 1.10,2013-08-15 09:26:00,
2013-08-15 04:41:00,76.0,74.0,29.84,West,264,2.0,-999.0,94,-99.99,,,0.00,weatherlink.com 1.10,2013-08-15 09:41:00,
2013-08-15 04:57:00,76.0,75.0,29.83,West,264,3.0,-999.0,95,-99.99,,,0.00,weatherlink.com 1.10,2013-08-15 09:57:00,
2013-08-15 05:12:00,75.9,74.0,29.84,West,264,0.0,-999.0,95,-99.99,,,0.00,weatherlink.com 1.10,2013-08-15 10:12:00,
2013-08-15 05:27:00,75.8,74.0,29.83,West,264,0.0,-999.0,95,-99.99,,,0.00,weatherlink.com 1.10,2013-08-15 10:27:00,
2013-08-15 05:42:00,75.7,74.0,29.83,West,264,0.0,-999.0,95,-99.99,,,0.00,weatherlink.com 1.10,2013-08-15 10:42:00,
2013-08-15 05:57:00,75.6,74.0,29.84,West,264,0.0,-999.0,95,-99.99,,,0.00,weatherlink.com 1.10,2013-08-15 10:57:00,
2013-08-15 06:12:00,75.3,74.0,29.84,West,264,0.0,-999.0,95,-99.99,,,0.00,weatherlink.com 1.10,2013-08-15 11:12:00,
2013-08-15 06:27:00,75.1,74.0,29.85,West,272,0.0,-999.0,96,-99.99,,,0.00,weatherlink.com 1.10,2013-08-15 11:27:00,
2013-08-15 06:42:00,75.1,74.0,29.86,West,272,0.0,-999.0,96,-99.99,,,0.00,weatherlink.com 1.10,2013-08-15 11:42:00,
2013-08-15 06:57:00,75.2,74.0,29.87,West,272,0.0,-999.0,96,-99.99,,,0.00,weatherlink.com 1.10,2013-08-15 11:57:00,
2013-08-15 07:12:00,75.5,74.0,29.86,WNW,284,1.0,-999.0,96,-99.99,,,0.00,weatherlink.com 1.10,2013-08-15 12:12:00,
2013-08-15 07:27:00,76.3,75.0,29.87,WNW,302,2.0,-999.0,96,-99.99,,,0.00,weatherlink.com 1.10,2013-08-15 12:27:00,
2013-08-15 07:42:00,76.4,75.0,29.88,NNW,342,1.0,-999.0,95,-99.99,,,0.00,weatherlink.com 1.10,2013-08-15 12:42:00,
2013-08-15 07:57:00,77.5,76.0,29.87,NNW,332,0.0,-999.0,95,-99.99,,,0.00,weatherlink.com 1.10,2013-08-15 12:57:00,
2013-08-15 08:13:00,79.0,77.0,29.88,NE,50,6.0,-999.0,92,-99.99,,,0.00,weatherlink.com 1.10,2013-08-15 13:13:00,
2013-08-15 08:28:00,79.1,76.0,29.89,NE,38,1.0,-999.0,91,-99.99,,,0.00,weatherlink.com 1.10,2013-08-15 13:28:00,
2013-08-15 08:43:00,79.1,76.0,29.89,North,5,3.0,-999.0,91,-99.99,,,0.00,weatherlink.com 1.10,2013-08-15 13:43:00,
2013-08-15 08:58:00,78.6,76.0,29.89,NW,314,4.0,-999.0,90,-99.99,,,0.00,weatherlink.com 1.10,2013-08-15 13:58:00,
2013-08-15 09:13:00,77.6,75.0,29.89,WNW,288,1.0,-999.0,92,-99.99,,,0.00,weatherlink.com 1.10,2013-08-15 14:13:00,
2013-08-15 09:28:00,78.0,76.0,29.90,NNW,329,0.0,-999.0,93,-99.99,,,0.00,weatherlink.com 1.10,2013-08-15 14:28:00,
2013-08-15 09:58:00,78.2,76.0,29.90,WSW,238,0.0,-999.0,92,-99.99,,,0.00,weatherlink.com 1.10,2013-08-15 14:58:00,
2013-08-15 10:13:00,78.7,76.0,29.90,WSW,238,0.0,-999.0,92,-99.99,,,0.00,weatherlink.com 1.10,2013-08-15 15:13:00,
2013-08-15 10:28:00,79.4,77.0,29.90,East,88,3.0,-999.0,91,-99.99,,,0.00,weatherlink.com 1.10,2013-08-15 15:28:00,
2013-08-15 10:43:00,79.3,77.0,29.90,East,88,1.0,-999.0,92,-99.99,,,0.00,weatherlink.com 1.10,2013-08-15 15:43:00,
2013-08-15 10:59:00,80.0,77.0,29.90,SE,125,3.0,-999.0,90,-99.99,,,0.00,weatherlink.com 1.10,2013-08-15 15:59:00,
2013-08-15 11:14:00,80.2,77.0,29.90,SE,136,3.0,-999.0,89,-99.99,,,0.00,weatherlink.com 1.10,2013-08-15 16:14:00,
2013-08-15 11:29:00,80.3,77.0,29.89,SSE,157,5.0,-999.0,89,-99.99,,,0.00,weatherlink.com 1.10,2013-08-15 16:29:00,
2013-08-15 11:59:00,81.0,77.0,29.89,SE,142,5.0,-999.0,87,-99.99,,,0.00,weatherlink.com 1.10,2013-08-15 16:59:00,
2013-08-15 12:14:00,81.7,75.0,29.88,South,185,9.0,-999.0,80,-99.99,,,0.00,weatherlink.com 1.10,2013-08-15 17:14:00,
2013-08-15 12:29:00,82.2,76.0,29.88,South,184,13.0,-999.0,80,-99.99,,,0.00,weatherlink.com 1.10,2013-08-15 17:29:00,
2013-08-15 12:59:00,82.6,77.0,29.87,SW,217,12.0,-999.0,82,-99.99,,,0.00,weatherlink.com 1.10,2013-08-15 17:59:00,
2013-08-15 13:14:00,82.2,76.0,29.86,SW,215,16.0,-999.0,82,-99.99,,,0.00,weatherlink.com 1.10,2013-08-15 18:14:00,
2013-08-15 13:29:00,81.9,77.0,29.86,SW,217,15.0,-999.0,84,-99.99,,,0.00,weatherlink.com 1.10,2013-08-15 18:29:00,
2013-08-15 13:45:00,82.0,73.0,29.86,SSW,207,14.0,-999.0,75,-99.99,,,0.00,weatherlink.com 1.10,2013-08-15 18:45:00,
2013-08-15 14:00:00,81.9,75.0,29.85,SW,214,17.0,-999.0,80,-99.99,,,0.00,weatherlink.com 1.10,2013-08-15 19:00:00,
2013-08-15 14:15:00,81.8,76.0,29.85,SSW,213,11.0,-999.0,81,-99.99,,,0.00,weatherlink.com 1.10,2013-08-15 19:15:00,
2013-08-15 14:30:00,82.3,76.0,29.84,SSW,201,13.0,-999.0,81,-99.99,,,0.00,weatherlink.com 1.10,2013-08-15 19:30:00,
2013-08-15 14:45:00,82.5,75.0,29.84,SSW,209,13.0,-999.0,77,-99.99,,,0.00,weatherlink.com 1.10,2013-08-15 19:45:00,
2013-08-15 15:00:00,82.5,75.0,29.84,SSW,200,17.0,-999.0,79,-99.99,,,0.00,weatherlink.com 1.10,2013-08-15 20:00:00,
2013-08-15 15:15:00,82.6,76.0,29.84,SSW,209,20.0,-999.0,79,-99.99,,,0.00,weatherlink.com 1.10,2013-08-15 20:15:00,
2013-08-15 15:30:00,82.9,76.0,29.83,SSW,205,13.0,-999.0,80,-99.99,,,0.00,weatherlink.com 1.10,2013-08-15 20:30:00,
2013-08-15 15:45:00,83.1,76.0,29.84,SW,223,17.0,-999.0,78,-99.99,,,0.00,weatherlink.com 1.10,2013-08-15 20:45:00,
2013-08-15 16:00:00,83.0,76.0,29.84,SSW,200,17.0,-999.0,79,-99.99,,,0.00,weatherlink.com 1.10,2013-08-15 21:00:00,
2013-08-15 16:15:00,83.1,77.0,29.84,SSW,206,16.0,-999.0,82,-99.99,,,0.00,weatherlink.com 1.10,2013-08-15 21:15:00,
2013-08-15 16:31:00,83.0,76.0,29.84,SSW,205,14.0,-999.0,80,-99.99,,,0.00,weatherlink.com 1.10,2013-08-15 21:31:00,
2013-08-15 16:46:00,83.2,77.0,29.84,SSW,209,14.0,-999.0,82,-99.99,,,0.00,weatherlink.com 1.10,2013-08-15 21:46:00,
2013-08-15 17:01:00,83.3,77.0,29.83,SW,219,12.0,-999.0,81,-99.99,,,0.00,weatherlink.com 1.10,2013-08-15 22:01:00,
2013-08-15 17:16:00,82.5,75.0,29.84,West,261,5.0,-999.0,79,-99.99,,,0.00,weatherlink.com 1.10,2013-08-15 22:16:00,
2013-08-15 17:31:00,81.6,76.0,29.84,West,279,5.0,-999.0,82,-99.99,,,0.00,weatherlink.com 1.10,2013-08-15 22:31:00,
2013-08-15 17:46:00,81.2,75.0,29.84,West,266,5.0,-999.0,81,-99.99,,,0.00,weatherlink.com 1.10,2013-08-15 22:46:00,
2013-08-15 18:01:00,81.8,75.0,29.84,WNW,291,1.0,-999.0,80,-99.99,,,0.00,weatherlink.com 1.10,2013-08-15 23:01:00,
2013-08-15 18:16:00,82.3,75.0,29.84,WNW,286,3.0,-999.0,79,-99.99,,,0.00,weatherlink.com 1.10,2013-08-15 23:16:00,
2013-08-15 18:31:00,82.1,75.0,29.84,West,265,3.0,-999.0,80,-99.99,,,0.00,weatherlink.com 1.10,2013-08-15 23:31:00,
2013-08-15 18:46:00,81.4,75.0,29.84,West,281,0.0,-999.0,81,-99.99,,,0.00,weatherlink.com 1.10,2013-08-15 23:46:00,
2013-08-15 19:16:00,80.3,75.0,29.84,West,281,0.0,-999.0,83,-99.99,,,0.00,weatherlink.com 1.10,2013-08-16 00:16:00,
2013-08-15 19:31:00,80.7,76.0,29.84,WSW,250,0.0,-999.0,84,-99.99,,,0.00,weatherlink.com 1.10,2013-08-16 00:31:00,
2013-08-15 19:46:00,80.5,75.0,29.85,WSW,250,0.0,-999.0,84,-99.99,,,0.00,weatherlink.com 1.10,2013-08-16 00:46:00,
2013-08-15 20:01:00,80.4,76.0,29.86,West,267,0.0,-999.0,85,-99.99,,,0.00,weatherlink.com 1.10,2013-08-16 01:01:00,
2013-08-15 20:32:00,81.0,75.0,29.86,WSW,257,3.0,-999.0,82,-99.99,,,0.00,weatherlink.com 1.10,2013-08-16 01:32:00,
2013-08-15 20:47:00,80.9,75.0,29.87,WSW,254,0.0,-999.0,83,-99.99,,,0.00,weatherlink.com 1.10,2013-08-16 01:47:00,
2013-08-15 21:02:00,80.5,75.0,29.87,WSW,254,0.0,-999.0,84,-99.99,,,0.00,weatherlink.com 1.10,2013-08-16 02:02:00,
2013-08-15 21:17:00,80.0,76.0,29.88,WSW,254,0.0,-999.0,86,-99.99,,,0.00,weatherlink.com 1.10,2013-08-16 02:17:00,
2013-08-15 21:32:00,79.6,75.0,29.88,WSW,254,0.0,-999.0,86,-99.99,,,0.00,weatherlink.com 1.10,2013-08-16 02:32:00,
2013-08-15 21:47:00,79.6,76.0,29.89,WSW,254,0.0,-999.0,87,-99.99,,,0.00,weatherlink.com 1.10,2013-08-16 02:47:00,
2013-08-15 22:02:00,79.5,75.0,29.89,WSW,254,0.0,-999.0,87,-99.99,,,0.00,weatherlink.com 1.10,2013-08-16 03:02:00,
2013-08-15 22:17:00,79.2,75.0,29.89,WSW,254,0.0,-999.0,87,-99.99,,,0.00,weatherlink.com 1.10,2013-08-16 03:17:00,
2013-08-15 22:32:00,79.0,75.0,29.89,WSW,254,0.0,-999.0,88,-99.99,,,0.00,weatherlink.com 1.10,2013-08-16 03:32:00,
2013-08-15 22:47:00,78.7,75.0,29.88,WSW,254,0.0,-999.0,89,-99.99,,,0.00,weatherlink.com 1.10,2013-08-16 03:47:00,
2013-08-15 23:02:00,78.4,75.0,29.88,WSW,254,0.0,-999.0,89,-99.99,,,0.00,weatherlink.com 1.10,2013-08-16 04:02:00,
2013-08-15 23:17:00,78.2,75.0,29.88,WSW,254,0.0,-999.0,90,-99.99,,,0.00,weatherlink.com 1.10,2013-08-16 04:17:00,
2013-08-15 23:33:00,78.2,75.0,29.88,WSW,254,0.0,-999.0,90,-99.99,,,0.00,weatherlink.com 1.10,2013-08-16 04:33:00,
2013-08-15 23:48:00,78.2,75.0,29.88,WSW,254,0.0,-999.0,90,-99.99,,,0.00,weatherlink.com 1.10,2013-08-16 04:48:00,